FW7203 Weather Reports


time (UTC)temp
F
wind
direction
speed
knots
gust
knots
rain 1hr
in
rain 24hr
in
rain mn
in
humidity
%
barometer
mb
20260504192029 78 171 6.1 11.3 0.00 0.00 0.00 69 1014.7
20260504191549 79 184 2.6 10.4 0.00 0.00 0.00 68 1014.7
20260504191026 78 175 3.5 12.2 0.00 0.00 0.00 68 1014.9
20260504190532 78 156 7.0 13.9 0.00 0.00 0.00 68 1015.0
20260504190108 78 194 4.3 13.9 0.00 0.00 0.00 68 1015.0
20260504185532 78 165 3.5 13.9 0.00 0.00 0.00 67 1015.0
20260504185031 78 275 5.2 10.4 0.00 0.00 0.00 69 1014.9
20260504184555 78 151 4.3 10.4 0.00 0.00 0.00 69 1015.0
20260504184027 78 181 2.6 10.4 0.00 0.00 0.00 70 1015.0
20260504183530 77 150 7.0 13.0 0.00 0.00 0.00 69 1015.1
20260504183044 77 194 5.2 13.9 0.00 0.00 0.00 69 1015.2
20260504182527 77 155 5.2 13.9 0.00 0.00 0.00 69 1015.3
20260504182027 78 171 7.0 13.9 0.00 0.00 0.00 68 1015.3
20260504181553 79 184 2.6 7.8 0.00 0.00 0.00 72 1015.5
20260504181026 78 165 2.6 11.3 0.00 0.00 0.00 72 1015.6
20260504180526 77 179 3.5 11.3 0.00 0.00 0.00 69 1015.5
20260504180122 77 154 6.1 12.2 0.00 0.00 0.00 69 1015.7
20260504175527 77 190 7.0 12.2 0.00 0.00 0.00 69 1015.6
20260504175026 77 156 2.6 9.6 0.00 0.00 0.00 69 1015.7
20260504174549 76 172 4.3 9.6 0.00 0.00 0.00 69 1015.8
20260504174026 76 198 5.2 10.4 0.00 0.00 0.00 69 1015.9
20260504173526 77 170 4.3 10.4 0.00 0.00 0.00 68 1016.0
20260504173053 77 149 4.3 9.6 0.00 0.00 0.00 70 1016.0
20260504172526 77 155 3.5 11.3 0.00 0.00 0.00 70 1015.9
20260504172027 77 152 6.1 11.3 0.00 0.00 0.00 70 1016.1
20260504171546 77 123 4.3 12.2 0.00 0.00 0.00 70 1016.2
20260504171027 77 192 5.2 12.2 0.00 0.00 0.00 68 1016.1
20260504170526 78 148 3.5 10.4 0.00 0.00 0.00 69 1016.1
20260504151028 76 167 5.2 10.4 0.00 0.00 0.00 72 1016.7
20260504150527 75 143 2.6 11.3 0.00 0.00 0.00 72 1016.8
20260504141027 72 148 1.7 4.3 0.00 0.00 0.00 79 1016.5
20260504140526 72 167 1.7 6.1 0.00 0.00 0.00 80 1016.4
20260504130530 59 0 0.0 0.0 0.00 0.00 0.00 98 1016.7
20260504120109 55 0 0.0 0.0 0.00 0.00 0.00 97 1016.4
20260504110529 55 0 0.0 0.0 0.00 0.00 0.00 97 1016.4
20260504100528 55 0 0.0 0.0 0.00 0.00 0.00 96 1016.4
20260504081543 56 0 0.0 0.0 0.00 0.00 0.00 95 1017.2
20260504081031 56 0 0.0 0.0 0.00 0.00 0.00 95 1017.5
20260504080528 56 0 0.0 0.0 0.00 0.00 0.00 95 1017.4
20260504050529 57 0 0.0 0.0 0.00 0.00 0.00 92 1019.2
20260504050105 57 0 0.0 0.0 0.00 0.00 0.00 92 1019.2
20260504045528 57 0 0.0 0.0 0.00 0.00 0.00 92 1019.2
20260504045026 57 0 0.0 0.0 0.00 0.00 0.00 92 1019.3
20260504044545 57 0 0.0 0.0 0.00 0.00 0.00 91 1019.4
20260504044026 57 0 0.0 0.0 0.00 0.00 0.00 91 1019.4
20260504043529 57 0 0.0 0.0 0.00 0.00 0.00 91 1019.4
20260504043045 57 0 0.0 0.0 0.00 0.00 0.00 90 1019.3
20260504042530 57 0 0.0 0.0 0.00 0.00 0.00 90 1019.4
20260504042025 57 0 0.0 0.0 0.00 0.00 0.00 90 1019.4
20260504041543 58 0 0.0 0.0 0.00 0.00 0.00 89 1019.3
20260504041029 58 0 0.0 0.0 0.00 0.00 0.00 89 1019.2
20260504040533 58 0 0.0 0.0 0.00 0.00 0.00 89 1019.2
20260504040046 58 0 0.0 0.0 0.00 0.00 0.00 89 1019.3
20260504035529 58 0 0.0 0.0 0.00 0.00 0.00 89 1019.3
20260504035029 58 0 0.0 0.0 0.00 0.00 0.00 88 1019.4
20260504034549 58 0 0.0 0.0 0.00 0.00 0.00 88 1019.3
20260504034030 58 0 0.0 0.0 0.00 0.00 0.00 87 1019.3
20260504033534 59 0 0.0 0.0 0.00 0.00 0.00 87 1019.2
20260504033046 59 0 0.0 0.0 0.00 0.00 0.00 87 1019.4
20260504032528 59 0 0.0 0.0 0.00 0.00 0.00 87 1019.4
20260504032028 59 0 0.0 0.0 0.00 0.00 0.00 86 1019.4
20260504031558 59 0 0.0 0.0 0.00 0.00 0.00 86 1019.2
20260504031031 60 0 0.0 0.0 0.00 0.00 0.00 85 1019.2
20260504030526 60 0 0.0 0.0 0.00 0.00 0.00 85 1019.2
20260504030046 60 0 0.0 0.0 0.00 0.00 0.00 85 1019.2
20260504025534 60 0 0.0 0.0 0.00 0.00 0.00 85 1019.2
20260504025025 60 0 0.0 0.0 0.00 0.00 0.00 84 1019.2
20260504024543 61 0 0.0 0.0 0.00 0.00 0.00 83 1019.2
20260504024029 61 0 0.0 0.0 0.00 0.00 0.00 83 1019.2
20260504023526 61 0 0.0 0.0 0.00 0.00 0.00 83 1019.2
20260504023043 61 0 0.0 0.0 0.00 0.00 0.00 82 1019.1
20260504022528 62 0 0.0 0.0 0.00 0.00 0.00 82 1019.2
20260504022028 62 0 0.0 0.0 0.00 0.00 0.00 81 1019.1
20260504021542 63 0 0.0 0.0 0.00 0.00 0.00 81 1019.1
20260504021029 63 0 0.0 0.0 0.00 0.00 0.00 80 1019.1
20260504020526 63 0 0.0 0.0 0.00 0.00 0.00 78 1019.2
20260504020047 64 0 0.0 0.0 0.00 0.00 0.00 77 1019.0
20260504015526 64 0 0.0 0.0 0.00 0.00 0.00 77 1019.1
20260504015025 64 0 0.0 0.0 0.00 0.00 0.00 76 1019.1
20260504014546 64 0 0.0 0.0 0.00 0.00 0.00 75 1019.0
20260504014026 65 0 0.0 0.0 0.00 0.00 0.00 74 1019.1
20260504013526 65 0 0.0 0.0 0.00 0.00 0.00 75 1019.2
20260504013042 66 0 0.0 0.0 0.00 0.00 0.00 73 1019.2
20260504012526 66 0 0.0 0.0 0.00 0.00 0.00 73 1018.9
20260504012026 67 0 0.0 1.7 0.00 0.00 0.00 72 1019.0
20260504011550 67 0 0.0 1.7 0.00 0.00 0.00 71 1018.8
20260504011027 67 178 0.0 0.9 0.00 0.00 0.00 68 1018.9
20260504010530 68 0 0.0 0.9 0.00 0.00 0.00 66 1019.0
20260504010045 68 0 0.0 0.9 0.00 0.00 0.00 65 1019.0
20260504005525 69 184 0.9 2.6 0.00 0.00 0.00 64 1018.9
20260504005028 69 360 0.9 2.6 0.00 0.00 0.00 63 1018.9
20260504004541 69 360 0.9 2.6 0.00 0.00 0.00 62 1019.0
20260504004029 69 186 0.9 1.7 0.00 0.00 0.00 62 1019.0
20260504003526 70 360 0.9 1.7 0.00 0.00 0.00 62 1018.9
20260504003049 70 360 0.9 2.6 0.00 0.00 0.00 59 1018.8
20260504002526 70 184 1.7 4.3 0.00 0.00 0.00 59 1018.8
20260504002028 71 360 1.7 4.3 0.00 0.00 0.00 58 1018.9
20260504001601 71 360 0.9 3.5 0.00 0.00 0.00 57 1018.9
20260504001026 71 360 0.9 2.6 0.00 0.00 0.00 57 1019.1
20260504000525 72 360 0.9 5.2 0.00 0.00 0.00 56 1019.0
20260504000045 72 360 2.6 5.2 0.00 0.00 0.00 55 1018.9
20260503235529 72 360 0.9 4.3 0.00 0.00 0.00 56 1019.1
20260503235026 72 213 0.9 5.2 0.00 0.00 0.00 55 1019.2
20260503234545 72 221 2.6 5.2 0.00 0.00 0.00 55 1019.1
20260503234028 72 360 1.7 4.3 0.00 0.00 0.00 55 1019.3
20260503233526 73 207 2.6 5.2 0.00 0.00 0.00 54 1019.2
20260503233044 73 189 0.9 7.0 0.00 0.00 0.00 53 1019.3
20260503232527 73 178 1.7 7.8 0.00 0.00 0.00 54 1019.3
20260503232026 73 170 3.5 7.8 0.00 0.00 0.00 53 1019.3
20260503231548 73 173 2.6 7.8 0.00 0.00 0.00 52 1019.4
20260503231025 73 165 3.5 7.8 0.00 0.00 0.00 51 1019.4
20260503230529 74 171 3.5 7.8 0.00 0.00 0.00 52 1019.4
20260503230041 74 161 2.6 7.0 0.00 0.00 0.00 52 1019.5
20260503225531 74 150 2.6 7.0 0.00 0.00 0.00 52 1019.4
20260503225028 74 160 4.3 7.0 0.00 0.00 0.00 51 1019.4
20260503224548 74 169 2.6 8.7 0.00 0.00 0.00 52 1019.6
20260503224029 74 182 3.5 8.7 0.00 0.00 0.00 51 1019.7
20260503223527 74 360 3.5 11.3 0.00 0.00 0.00 51 1019.8
20260503223047 74 150 3.5 11.3 0.00 0.00 0.00 49 1019.9
20260503222525 75 172 3.5 11.3 0.00 0.00 0.00 51 1019.9
20260503222025 75 173 2.6 7.0 0.00 0.00 0.00 51 1019.7
20260503221545 75 160 3.5 7.0 0.00 0.00 0.00 50 1019.7
20260503221026 74 223 1.7 7.0 0.00 0.00 0.00 49 1019.6
20260503220529 75 162 1.7 6.1 0.00 0.00 0.00 50 1019.8
20260503220047 75 167 1.7 7.8 0.00 0.00 0.00 50 1019.7
20260503215526 75 150 1.7 8.7 0.00 0.00 0.00 51 1019.9
20260503215025 75 166 3.5 8.7 0.00 0.00 0.00 49 1020.0
20260503214550 75 166 2.6 7.0 0.00 0.00 0.00 48 1020.0
20260503214025 75 165 2.6 7.8 0.00 0.00 0.00 48 1020.0
20260503213525 75 166 5.2 7.8 0.00 0.00 0.00 49 1020.0
20260503213102 75 174 2.6 7.0 0.00 0.00 0.00 50 1020.2
20260503212525 75 169 4.3 7.8 0.00 0.00 0.00 48 1020.3
20260503212025 75 163 2.6 9.6 0.00 0.00 0.00 49 1020.2
20260503211600 75 155 1.7 9.6 0.00 0.00 0.00 49 1020.4
20260503211028 76 172 4.3 9.6 0.00 0.00 0.00 47 1020.5
20260503210529 75 0 0.0 8.7 0.00 0.00 0.00 53 1020.5
20260503210045 75 165 5.2 8.7 0.00 0.00 0.00 48 1020.5
20260503205526 76 152 3.5 7.8 0.00 0.00 0.00 48 1020.5
20260503205029 76 150 1.7 6.1 0.00 0.00 0.00 46 1020.6
20260503204558 76 138 0.9 7.8 0.00 0.00 0.00 52 1020.7
20260503204026 75 178 2.6 7.8 0.00 0.00 0.00 47 1020.8
20260503203525 77 165 2.6 7.8 0.00 0.00 0.00 46 1020.9
20260503203042 77 133 0.9 6.1 0.00 0.00 0.00 48 1021.0
20260503202526 77 140 0.9 5.2 0.00 0.00 0.00 45 1021.1
20260503202026 77 62 0.9 9.6 0.00 0.00 0.00 47 1021.2
20260503201545 76 41 2.6 9.6 0.00 0.00 0.00 48 1021.3
20260503201025 77 167 1.7 4.3 0.00 0.00 0.00 47 1021.3
20260503200525 77 128 0.9 9.6 0.00 0.00 0.00 45 1021.4
20260503200044 76 167 3.5 9.6 0.00 0.00 0.00 47 1021.5
20260503195525 78 171 1.7 8.7 0.00 0.00 0.00 46 1021.5
20260503195025 77 182 0.9 6.1 0.00 0.00 0.00 52 1021.5
20260503194541 76 187 3.5 6.1 0.00 0.00 0.00 47 1021.5
20260503194025 77 169 0.0 5.2 0.00 0.00 0.00 43 1021.5
20260503193525 77 162 0.9 5.2 0.00 0.00 0.00 46 1021.6
20260503193045 77 146 2.6 4.3 0.00 0.00 0.00 47 1021.8
20260503192525 78 111 0.0 1.7 0.00 0.00 0.00 41 1021.8